星链-32079 (STARLINK-32079)

导读

STARLINK-32079是美国SpaceX公司星链(Starlink)卫星互联网星座的一员,于2024年8月2日发射入轨,属于低地球轨道通信卫星。它采用平板设计与霍尔推进技术,服务全球高速互联网接入,重点补充网络覆盖盲区,助力星链星座完成全球组网布局,单星设计寿命约5-7年,退役后会主动离轨坠入大气层焚毁。

基本信息
目录编号:
60336
目录名称:
STARLINK-32079
国际标识:
2024-136H
轨道中心:
EARTH
卫星名称:
星链-32079 (STARLINK-32079)
卫星全名:
星链-32079 (STARLINK-32079)
卫星状态:
在轨 (已飞行684 天)
发射日期:
2024-08-02 UTC
国别 :
美国 (US)
星等 :
--
轨道信息
数据来源 国际轨道数据 AOE轨道数据
星历时间 2026-06-17T01:02:28+0800
18小时前
查看轨道信息
2026-06-17T02:00:00+0800
17小时前
查看轨道信息
半长轴 6853.379km 6853.364km
偏心率 0.000113 0.0001219
轨道倾角 53.162° 53.161°
近地点辐角 99.900° 95.523°
升交点赤经 335.824° 335.639°
平近点角 260.213° 124.814°
近地点 474.467km 474.391km
远地点 476.017km 476.063km
周期 94.106分钟 94.106分钟
每日圈数 15.301912 15.301963
详细信息
卫星平台:
Starlink v2.0 mini
运营商:
太空探索技术公司
运营商所在国:
美国
制造商(研发单位):
太空探索技术公司
制造商所在国:
美国
使用方式:
暂无
卫星简介
星链(Starlink)计划是由太空探索技术公司(SpaceX)提出的一个巨型低轨卫星互联网星座项目,计划在2019年至2024年间在太空搭建由约1.2万颗卫星组成的“星链”网络,其中1584颗将部署在地球上空550千米处的近地轨道,并从2020年开始工作。该卫星仍在工作。
2D轨道图
3D轨道图
轨道高度分析图
轨道倾角分析图
轨道综合分析图
查看轨道综合分析图